GW1401 Weather Reports


Display with metric or nautical units.
time (UTC)temp
F
wind
direction
speed
MPH
gust
MPH
rain 1hr
in
rain 24hr
in
rain mn
in
humidity
%
barometer
mb
20260510073022 56 123 0.0 1.0 0.00 0.00 0.00 94 1014.4
20260510072518 56 128 0.0 1.0 0.00 0.00 0.00 95 1014.5
20260510072014 55 154 0.0 0.0 0.00 0.00 0.00 96 1014.6
20260510071510 55 122 0.0 2.0 0.00 0.00 0.00 98 1014.6
20260510071009 54 199 1.0 2.0 0.00 0.00 0.00 99 1014.5
20260510070505 54 134 0.0 0.0 0.00 0.00 0.00 99 1014.6
20260510070002 54 128 0.0 1.0 0.00 0.00 0.00 99 1014.7
20260510065458 53 140 0.0 1.0 0.00 0.00 0.00 99 1014.5
20260510064954 53 122 0.0 0.0 0.00 0.00 0.00 99 1014.5
20260510064451 53 120 0.0 0.0 0.00 0.00 0.00 99 1014.4
20260510063948 53 123 0.0 0.0 0.00 0.00 0.00 99 1014.6
20260510063444 53 126 0.0 0.0 0.00 0.00 0.00 99 1014.3
20260510062942 53 123 0.0 0.0 0.00 0.00 0.00 99 1014.3
20260510062437 54 114 0.0 0.0 0.00 0.00 0.00 99 1014.3
20260510061932 54 118 0.0 0.0 0.00 0.00 0.00 99 1014.5
20260510061429 53 128 1.0 1.0 0.00 0.00 0.00 99 1014.6
20260510060925 53 122 0.0 0.0 0.00 0.00 0.00 98 1014.6
20260510060423 53 122 0.0 0.0 0.00 0.00 0.00 98 1014.5
20260510055919 54 122 0.0 0.0 0.00 0.00 0.00 98 1014.5
20260510055415 54 122 0.0 0.0 0.00 0.00 0.00 98 1014.7
20260510054913 54 121 0.0 0.0 0.00 0.00 0.00 98 1014.7
20260510054408 54 122 0.0 0.0 0.00 0.00 0.00 98 1014.6
20260510053903 54 122 0.0 0.0 0.00 0.00 0.00 98 1014.8
20260510053359 54 122 0.0 0.0 0.00 0.00 0.00 97 1014.9
20260510052855 54 122 0.0 0.0 0.00 0.00 0.00 97 1015.0
20260510052351 54 122 0.0 0.0 0.00 0.00 0.00 97 1014.9
20260510051848 54 118 0.0 0.0 0.00 0.00 0.00 97 1015.0
20260510051344 54 119 0.0 0.0 0.00 0.00 0.00 97 1014.9
20260510050841 54 118 0.0 0.0 0.00 0.00 0.00 97 1015.0
20260510050337 54 118 0.0 0.0 0.00 0.00 0.00 96 1014.8
20260510045834 54 119 0.0 0.0 0.00 0.00 0.00 96 1015.0
20260510045326 54 118 0.0 0.0 0.00 0.00 0.00 96 1015.0
20260510044823 54 118 0.0 0.0 0.00 0.00 0.00 96 1014.9
20260510044320 55 118 0.0 0.0 0.00 0.00 0.00 95 1015.2
20260510043816 55 121 0.0 0.0 0.00 0.00 0.00 95 1015.1
20260510043312 55 122 0.0 0.0 0.00 0.00 0.00 95 1015.0
20260510042810 55 122 0.0 0.0 0.00 0.00 0.00 94 1015.0
20260510042307 55 122 0.0 0.0 0.00 0.00 0.00 94 1014.9
20260510041803 55 118 0.0 0.0 0.00 0.00 0.00 94 1014.8
20260510041300 55 118 0.0 0.0 0.00 0.00 0.00 94 1015.0
20260510040757 55 118 0.0 0.0 0.00 0.00 0.00 94 1015.0
20260510040254 55 118 0.0 0.0 0.00 0.00 0.00 93 1014.9
20260510035749 55 118 0.0 0.0 0.00 0.00 0.00 93 1014.8
20260510035245 55 118 0.0 0.0 0.00 0.00 0.00 92 1014.9
20260510034741 55 118 0.0 0.0 0.00 0.00 0.00 92 1014.9
20260510034239 55 118 0.0 0.0 0.00 0.00 0.00 92 1015.0
20260510033735 55 118 0.0 0.0 0.00 0.00 0.00 91 1014.7
20260510033233 56 118 0.0 0.0 0.00 0.00 0.00 91 1015.1
20260510032729 56 118 0.0 0.0 0.00 0.00 0.00 91 1014.9
20260510032225 56 118 0.0 0.0 0.00 0.00 0.00 91 1015.0
20260510031720 56 121 0.0 0.0 0.00 0.00 0.00 90 1015.0
20260510031216 56 121 0.0 0.0 0.00 0.00 0.00 90 1015.0
20260510030715 57 121 0.0 0.0 0.00 0.00 0.00 89 1014.9
20260510030213 57 122 0.0 0.0 0.00 0.00 0.00 88 1014.8
20260510025711 57 121 0.0 0.0 0.00 0.00 0.00 88 1014.8
20260510025208 57 122 0.0 0.0 0.00 0.00 0.00 87 1014.6
20260510024705 57 122 0.0 0.0 0.00 0.00 0.00 86 1014.7
20260510024201 57 122 0.0 0.0 0.00 0.00 0.00 86 1014.6
20260510023657 58 122 0.0 0.0 0.00 0.00 0.00 86 1014.7
20260510023154 58 122 0.0 0.0 0.00 0.00 0.00 85 1014.5
20260510022649 58 121 0.0 0.0 0.00 0.00 0.00 84 1014.6
20260510022144 59 122 0.0 0.0 0.00 0.00 0.00 83 1014.5
20260510021640 59 122 0.0 0.0 0.00 0.00 0.00 82 1014.3
20260510021137 59 121 0.0 0.0 0.00 0.00 0.00 82 1014.3
20260510020632 59 121 0.0 0.0 0.00 0.00 0.00 81 1014.2
20260510020127 60 122 0.0 0.0 0.00 0.00 0.00 80 1014.0
20260510015624 60 122 0.0 0.0 0.00 0.00 0.00 80 1014.1
20260510015120 60 123 0.0 0.0 0.00 0.00 0.00 79 1013.9
20260510014616 61 123 0.0 0.0 0.00 0.00 0.00 78 1013.8
20260510014113 61 123 0.0 0.0 0.00 0.00 0.00 77 1013.7
20260510013608 62 123 0.0 0.0 0.00 0.00 0.00 75 1013.6
20260510013103 62 123 0.0 0.0 0.00 0.00 0.00 73 1013.5
20260510012557 63 123 0.0 0.0 0.00 0.00 0.00 73 1013.5
20260510012054 64 121 0.0 0.0 0.00 0.00 0.00 70 1013.6
20260510011554 65 132 0.0 0.0 0.00 0.00 0.00 67 1013.2
20260510011050 66 133 0.0 0.0 0.00 0.00 0.00 64 1013.4
20260510010547 67 133 0.0 0.0 0.00 0.00 0.00 62 1013.3
20260510010044 68 133 0.0 0.0 0.00 0.00 0.00 59 1013.1
20260510005539 69 133 0.0 0.0 0.00 0.00 0.00 58 1013.1
20260510005037 70 133 0.0 0.0 0.00 0.00 0.00 55 1013.2
20260510004535 71 127 0.0 1.0 0.00 0.00 0.00 53 1012.9
20260510004033 72 132 0.0 0.0 0.00 0.00 0.00 51 1012.9
20260510003529 72 113 0.0 1.0 0.00 0.00 0.00 52 1012.7
20260510003024 73 189 1.0 1.0 0.00 0.00 0.00 49 1012.5
20260510002520 73 146 0.0 3.0 0.00 0.00 0.00 50 1012.5
20260510002017 74 146 1.0 3.0 0.00 0.00 0.00 49 1012.4
20260510001515 74 173 0.0 1.0 0.00 0.00 0.00 48 1012.5
20260510001013 75 170 0.0 2.0 0.00 0.00 0.00 47 1012.3
20260510000513 76 141 0.0 5.0 0.00 0.00 0.00 47 1012.1
20260510000010 76 175 1.0 3.0 0.00 0.00 0.00 46 1012.3
20260509235507 76 132 0.0 2.0 0.00 0.00 0.00 46 1012.0
20260509235003 76 245 2.0 5.0 0.00 0.00 0.00 45 1012.3
20260509234500 77 142 1.0 3.0 0.00 0.00 0.00 46 1012.0
20260509233958 77 139 2.0 3.0 0.00 0.00 0.00 46 1012.0
20260509233454 78 127 2.0 3.0 0.00 0.00 0.00 45 1012.0
20260509232950 78 154 0.0 3.0 0.00 0.00 0.00 45 1012.0
20260509232449 78 291 3.0 8.0 0.00 0.00 0.00 45 1011.9
20260509231944 78 156 1.0 6.0 0.00 0.00 0.00 45 1012.0
20260509231441 79 179 1.0 2.0 0.00 0.00 0.00 44 1011.9
20260509230939 79 265 1.0 2.0 0.00 0.00 0.00 44 1011.7
20260509230436 78 161 0.0 1.0 0.00 0.00 0.00 44 1011.9
20260509225931 78 277 4.0 6.0 0.00 0.00 0.00 45 1011.8
20260509225428 78 179 4.0 6.0 0.00 0.00 0.00 44 1011.8
20260509224925 79 120 2.0 7.0 0.00 0.00 0.00 45 1011.8
20260509224420 79 170 1.0 5.0 0.00 0.00 0.00 43 1012.1
20260509223918 80 207 5.0 7.0 0.00 0.00 0.00 44 1011.8
20260509223414 80 311 2.0 6.0 0.00 0.00 0.00 43 1011.8
20260509222911 79 292 2.0 5.0 0.00 0.00 0.00 43 1011.8
20260509222406 79 290 6.0 8.0 0.00 0.00 0.00 42 1011.8
20260509221902 80 133 0.0 6.0 0.00 0.00 0.00 44 1011.9
20260509221359 79 179 5.0 8.0 0.00 0.00 0.00 44 1011.9
20260509220855 80 353 2.0 3.0 0.00 0.00 0.00 43 1011.8
20260509220351 80 247 2.0 3.0 0.00 0.00 0.00 42 1011.8
20260509215847 80 38 2.0 3.0 0.00 0.00 0.00 40 1011.7
20260509215343 81 199 1.0 2.0 0.00 0.00 0.00 42 1012.0
20260509214841 80 148 0.0 3.0 0.00 0.00 0.00 44 1011.7
20260509214338 80 169 3.0 9.0 0.00 0.00 0.00 42 1011.8
20260509213835 80 267 2.0 3.0 0.00 0.00 0.00 41 1011.8
20260509213330 80 129 3.0 3.0 0.00 0.00 0.00 44 1011.8
20260509212828 80 193 1.0 3.0 0.00 0.00 0.00 44 1012.0
20260509212326 80 122 3.0 5.0 0.00 0.00 0.00 44 1011.9
20260509211821 80 45 1.0 5.0 0.00 0.00 0.00 41 1011.9
20260509211317 80 173 1.0 5.0 0.00 0.00 0.00 44 1012.0
20260509210814 80 218 1.0 6.0 0.00 0.00 0.00 42 1012.0
20260509210312 79 168 2.0 5.0 0.00 0.00 0.00 40 1011.9
20260509205811 80 224 2.0 8.0 0.00 0.00 0.00 43 1011.8
20260509205307 79 248 2.0 6.0 0.00 0.00 0.00 41 1011.9
20260509204802 80 217 1.0 5.0 0.00 0.00 0.00 39 1011.9
20260509204259 80 137 1.0 7.0 0.00 0.00 0.00 42 1011.9
20260509203755 80 224 2.0 3.0 0.00 0.00 0.00 40 1012.0
20260509203253 80 188 3.0 5.0 0.00 0.00 0.00 43 1012.0
20260509202748 80 186 3.0 5.0 0.00 0.00 0.00 42 1012.1
20260509202244 80 134 0.0 3.0 0.00 0.00 0.00 42 1012.2
20260509201739 79 333 4.0 10.0 0.00 0.00 0.00 43 1012.1
20260509201236 80 144 1.0 1.0 0.00 0.00 0.00 45 1012.2
20260509200732 80 215 3.0 7.0 0.00 0.00 0.00 43 1012.3
20260509200227 79 162 1.0 5.0 0.00 0.00 0.00 48 1012.3
20260509195724 79 131 0.0 2.0 0.00 0.00 0.00 45 1012.4
20260509195218 79 322 2.0 8.0 0.00 0.00 0.00 43 1012.4
20260509194713 78 188 3.0 6.0 0.00 0.00 0.00 48 1012.5
20260509194210 78 284 4.0 7.0 0.00 0.00 0.00 44 1012.4
20260509193707 78 172 5.0 7.0 0.00 0.00 0.00 46 1012.6
20260509193206 79 131 1.0 6.0 0.00 0.00 0.00 49 1012.5
20260509192703 79 100 3.0 5.0 0.00 0.00 0.00 47 1012.5
20260509192158 78 222 1.0 2.0 0.00 0.00 0.00 50 1012.5
20260509191654 78 147 2.0 5.0 0.00 0.00 0.00 48 1012.6
20260509191150 78 192 3.0 6.0 0.00 0.00 0.00 47 1012.6
20260509190646 78 7 3.0 6.0 0.00 0.00 0.00 48 1012.8
20260509190144 77 242 1.0 7.0 0.00 0.00 0.00 53 1012.7
20260509185642 77 132 1.0 3.0 0.00 0.00 0.00 52 1012.7
20260509185137 76 242 3.0 8.0 0.00 0.00 0.00 54 1013.1
20260509184636 75 157 3.0 7.0 0.00 0.00 0.00 53 1013.2
20260509184132 76 88 3.0 8.0 0.00 0.00 0.00 53 1013.0
20260509183628 77 144 2.0 3.0 0.00 0.00 0.00 54 1012.9
20260509183124 75 320 2.0 5.0 0.00 0.00 0.00 50 1013.1
20260509182620 75 272 5.0 9.0 0.00 0.00 0.00 51 1013.0
20260509182117 76 286 2.0 3.0 0.00 0.00 0.00 57 1012.9
20260509181615 75 165 0.0 6.0 0.00 0.00 0.00 56 1012.9
20260509181112 75 139 3.0 7.0 0.00 0.00 0.00 50 1012.9
20260509180609 75 143 1.0 3.0 0.00 0.00 0.00 54 1013.0
20260509180105 75 171 2.0 3.0 0.00 0.00 0.00 56 1013.1
20260509175601 75 228 3.0 8.0 0.00 0.00 0.00 55 1013.1
20260509175058 74 151 1.0 5.0 0.00 0.00 0.00 57 1012.9
20260509174554 74 152 2.0 3.0 0.00 0.00 0.00 56 1013.0
20260509174049 74 236 3.0 8.0 0.00 0.00 0.00 56 1012.9
20260509173544 75 220 2.0 6.0 0.00 0.00 0.00 53 1013.2
20260509173041 75 218 1.0 3.0 0.00 0.00 0.00 54 1013.2
20260509172538 75 260 5.0 8.0 0.00 0.00 0.00 54 1013.1
20260509172033 74 200 4.0 5.0 0.00 0.00 0.00 57 1013.1
20260509171529 73 125 3.0 6.0 0.00 0.00 0.00 57 1013.1
20260509171026 73 152 3.0 6.0 0.00 0.00 0.00 56 1013.1
20260509170522 74 250 4.0 6.0 0.00 0.00 0.00 58 1013.3
20260509170018 74 168 3.0 5.0 0.00 0.00 0.00 57 1013.0
20260509165516 74 201 1.0 5.0 0.00 0.00 0.00 57 1013.1
20260509165012 73 115 0.0 3.0 0.00 0.00 0.00 55 1013.3
20260509164509 74 143 0.0 3.0 0.00 0.00 0.00 56 1013.3
20260509164004 74 144 0.0 1.0 0.00 0.00 0.00 59 1013.1
20260509163502 73 149 1.0 3.0 0.00 0.00 0.00 57 1013.2
20260509163002 73 346 7.0 8.0 0.00 0.00 0.00 57 1013.3
20260509162500 73 260 4.0 6.0 0.00 0.00 0.00 58 1013.1
20260509161956 73 222 3.0 5.0 0.00 0.00 0.00 57 1013.1
20260509161452 73 128 0.0 5.0 0.00 0.00 0.00 58 1013.2
20260509160947 72 128 0.0 6.0 0.00 0.00 0.00 60 1013.1
20260509160444 71 292 0.0 3.0 0.00 0.00 0.00 62 1013.2
20260509155938 70 126 1.0 2.0 0.00 0.00 0.00 63 1013.3
20260509155435 70 108 0.0 3.0 0.00 0.00 0.00 65 1012.9
20260509154932 70 131 1.0 1.0 0.00 0.00 0.00 67 1013.1
20260509154428 69 152 3.0 5.0 0.00 0.00 0.00 65 1013.1
20260509153925 70 170 3.0 5.0 0.00 0.00 0.00 64 1012.9
20260509153422 70 130 1.0 3.0 0.00 0.00 0.00 64 1012.9
20260509152919 69 231 2.0 5.0 0.00 0.00 0.00 69 1012.9
20260509152415 69 126 3.0 5.0 0.00 0.00 0.00 66 1013.1
20260509151912 69 148 1.0 2.0 0.00 0.00 0.00 67 1012.9
20260509151408 69 156 1.0 3.0 0.00 0.00 0.00 67 1013.0
20260509150907 69 179 1.0 3.0 0.00 0.00 0.00 67 1013.0
20260509150404 68 148 1.0 2.0 0.00 0.00 0.00 67 1013.0
20260509145903 68 127 1.0 3.0 0.00 0.00 0.00 68 1012.9
20260509145401 68 139 2.0 6.0 0.00 0.00 0.00 67 1013.0
20260509144858 69 167 3.0 5.0 0.00 0.00 0.00 66 1012.9
20260509144355 68 166 2.0 3.0 0.00 0.00 0.00 67 1012.9
20260509143852 67 72 0.0 2.0 0.00 0.00 0.00 69 1012.9
20260509143349 66 115 0.0 2.0 0.00 0.00 0.00 72 1012.9
20260509142846 66 139 2.0 3.0 0.00 0.00 0.00 72 1013.0
20260509142342 65 185 2.0 5.0 0.00 0.00 0.00 71 1013.1
20260509141837 65 237 2.0 10.0 0.00 0.00 0.00 73 1012.9
20260509141335 65 135 3.0 7.0 0.00 0.00 0.00 73 1012.9
20260509140831 66 164 0.0 3.0 0.00 0.00 0.00 73 1012.8
20260509140328 66 144 0.0 2.0 0.00 0.00 0.00 72 1012.6
20260509135827 65 124 0.0 1.0 0.00 0.00 0.00 72 1012.8
20260509135324 63 123 3.0 5.0 0.00 0.00 0.00 75 1012.7
20260509134821 65 147 2.0 6.0 0.00 0.00 0.00 73 1012.8
20260509134318 64 129 0.0 1.0 0.00 0.00 0.00 76 1012.9
20260509133815 64 156 1.0 5.0 0.00 0.00 0.00 76 1012.7
20260509133311 63 149 2.0 2.0 0.00 0.00 0.00 76 1012.7
20260509132810 62 135 0.0 2.0 0.00 0.00 0.00 78 1012.6
20260509132308 62 127 0.0 5.0 0.00 0.00 0.00 78 1013.0
20260509131804 62 156 0.0 1.0 0.00 0.00 0.00 80 1012.8
20260509131301 62 127 1.0 2.0 0.00 0.00 0.00 80 1012.8
20260509130758 62 123 0.0 3.0 0.00 0.00 0.00 81 1012.8
20260509130253 61 165 2.0 5.0 0.00 0.00 0.00 82 1012.6
20260509125750 60 126 0.0 0.0 0.00 0.00 0.00 86 1012.5
20260509125247 59 164 2.0 3.0 0.00 0.00 0.00 86 1012.8
20260509124744 59 134 0.0 1.0 0.00 0.00 0.00 88 1012.5
20260509124240 59 124 0.0 0.0 0.00 0.00 0.00 90 1012.6
20260509123738 58 122 0.0 1.0 0.00 0.00 0.00 90 1012.7
20260509123235 58 124 0.0 0.0 0.00 0.00 0.00 92 1012.7
20260509122731 57 128 0.0 0.0 0.00 0.00 0.00 92 1012.9
20260509122228 57 131 0.0 0.0 0.00 0.00 0.00 94 1012.7
20260509121724 57 128 0.0 0.0 0.00 0.00 0.00 94 1012.8
20260509121222 57 119 0.0 0.0 0.00 0.00 0.00 94 1012.7
20260509120720 57 117 0.0 0.0 0.00 0.00 0.00 94 1012.7
20260509120218 57 130 0.0 0.0 0.00 0.00 0.00 95 1012.7
20260509115715 57 112 0.0 0.0 0.00 0.00 0.00 95 1012.6
20260509115213 57 108 0.0 1.0 0.00 0.00 0.00 95 1012.5
20260509114711 56 117 0.0 0.0 0.00 0.00 0.00 95 1012.3
20260509114209 56 126 0.0 0.0 0.00 0.00 0.00 95 1012.1
20260509113708 56 110 0.0 0.0 0.00 0.00 0.00 95 1012.0
20260509113204 56 127 0.0 0.0 0.00 0.00 0.00 96 1012.2
20260509112701 56 143 0.0 0.0 0.00 0.00 0.00 96 1012.0
20260509112158 56 117 0.0 0.0 0.00 0.00 0.00 96 1012.1
20260509111655 56 177 1.0 2.0 0.00 0.00 0.00 97 1012.0
20260509111152 55 184 0.0 0.0 0.00 0.00 0.00 97 1011.7
20260509110649 55 114 0.0 0.0 0.00 0.00 0.00 97 1011.8
20260509110146 55 127 0.0 1.0 0.00 0.00 0.00 97 1011.9
20260509105644 55 126 0.0 0.0 0.00 0.00 0.00 97 1011.8
20260509105141 55 110 0.0 0.0 0.00 0.00 0.00 97 1012.0
20260509104638 55 110 0.0 0.0 0.00 0.00 0.00 97 1012.0
20260509104134 55 118 0.0 0.0 0.00 0.00 0.00 97 1011.9
20260509103633 55 118 0.0 0.0 0.00 0.00 0.00 96 1012.1
20260509103130 55 117 0.0 0.0 0.00 0.00 0.00 96 1011.9
20260509102627 55 138 0.0 1.0 0.00 0.00 0.00 96 1011.9
20260509102124 55 122 0.0 0.0 0.00 0.00 0.00 96 1012.0
20260509101621 55 147 1.0 1.0 0.00 0.00 0.00 96 1011.9
20260509101118 55 120 0.0 0.0 0.00 0.00 0.00 96 1011.9
20260509100615 56 117 0.0 0.0 0.00 0.00 0.00 95 1012.1
20260509100112 56 119 0.0 0.0 0.00 0.00 0.00 95 1012.1
20260509095608 56 124 0.0 0.0 0.00 0.00 0.00 95 1012.4
20260509095106 56 113 0.0 0.0 0.00 0.00 0.00 95 1012.1
20260509094602 56 124 0.0 0.0 0.00 0.00 0.00 95 1012.0
20260509094100 56 124 0.0 0.0 0.00 0.00 0.00 95 1012.1
20260509093558 56 123 0.0 0.0 0.00 0.00 0.00 94 1012.2
20260509093055 56 125 0.0 0.0 0.00 0.00 0.00 94 1012.2
20260509092552 56 84 0.0 1.0 0.00 0.00 0.00 94 1012.1
20260509092051 56 136 0.0 0.0 0.00 0.00 0.00 93 1012.2
20260509091548 56 121 0.0 0.0 0.00 0.00 0.00 93 1012.3
20260509091044 57 121 0.0 0.0 0.00 0.00 0.00 93 1012.2
20260509090542 57 123 0.0 0.0 0.00 0.00 0.00 92 1012.4
20260509090040 57 120 0.0 0.0 0.00 0.00 0.00 92 1012.7
20260509085537 57 121 0.0 0.0 0.00 0.00 0.00 92 1012.7
20260509085033 57 121 0.0 1.0 0.00 0.00 0.00 91 1012.4
20260509084530 57 122 0.0 1.0 0.00 0.00 0.00 91 1012.4
20260509084027 57 132 0.0 3.0 0.00 0.00 0.00 91 1012.1
20260509083524 57 130 0.0 0.0 0.00 0.00 0.00 91 1012.5
20260509083021 57 109 0.0 0.0 0.00 0.00 0.00 91 1012.5
20260509082518 57 123 0.0 2.0 0.00 0.00 0.00 91 1012.6
20260509082015 57 331 2.0 2.0 0.00 0.00 0.00 91 1012.5
20260509081513 57 119 0.0 0.0 0.00 0.00 0.00 91 1012.4
20260509081009 57 117 0.0 1.0 0.00 0.00 0.00 91 1012.5
20260509080507 57 123 0.0 1.0 0.00 0.00 0.00 91 1012.3
20260509080005 57 132 0.0 0.0 0.00 0.00 0.00 90 1012.4
20260509075502 57 96 0.0 0.0 0.00 0.00 0.00 90 1012.4
20260509075000 57 110 0.0 0.0 0.00 0.00 0.00 89 1012.4
20260509074457 57 117 0.0 1.0 0.00 0.00 0.00 89 1012.5
20260509073953 58 101 1.0 1.0 0.00 0.00 0.00 88 1012.5